Weather History for Little Rock, AR

Change the Weather History Date:

Wednesday, March 6, 2013

  Actual Average Record
Temperature  
Mean Temperature 42 °F 50 °F  
Max Temperature 53 °F 61 °F 83 °F (1956)
Min Temperature 31 °F 40 °F 19 °F (1899)
Degree Days  
Heating Degree Days 23 15  
Month to date heating degree days 131 93  
Since 1 July heating degree days 2417 2606  
Cooling Degree Days 0 0  
Month to date cooling degree days 0 0  
Year to date cooling degree days 5 2  
Moisture  
Dew Point 24 °F    
Average Humidity 50    
Maximum Humidity 70    
Minimum Humidity 30    
Precipitation  
Precipitation 0.00 in 0.15 in 2.02 in (1887)
Month to date precipitation 0.08 0.86  
Year to date precipitation 9.64 8.07  
Snow  
Snow 0.00 in 0.00 in 12.00 in (1875)
Month to date snowfall 0.0 0.1  
Since 1 July snowfall 10.6 3.2  
Snow Depth 0.00 in    
Sea Level Pressure  
Sea Level Pressure 30.35 in    
Wind  
Wind Speed 7 mph (NNW)    
Max Wind Speed 20 mph    
Max Gust Speed 24 mph    
Visibility 10 miles    
Events      
T = Trace of Precipitation, MM = Missing Value Source: NWS Daily Summary

Daily Weather History Graph

Daily Weather History Graph

Search for Another Location

Airport:

Trip Planner

Search our weather history database for the weather conditions in past years. The results will help you decide how hot, cold, wet, or windy it might be!

Date:

Astronomy

Mar. 06, 2013 Rise Set
Actual Time 6:31 AM CST 6:09 PM CST
Civil Twilight 6:06 AM CST 6:34 PM CST
Nautical Twilight 5:36 AM CST 7:03 PM CST
Astronomical Twilight 5:07 AM CST 7:33 PM CST
Moon 2:30 AM CST (3/6) 1:01 PM CST (3/6)
Length of Visible Light 12h 28m
Length of Day
11h 38m
Waning Crescent, 29% of the Moon is Illuminated
Mar 6
Waning Crescent
Mar 11
New
Mar 19
First Quarter
Mar 27
Full
Apr 2
Last Quarter

Hourly Weather History & Observations

Time (CST) Temp. Windchill Dew Point Humidity Pressure Visibility Wind Dir Wind Speed Gust Speed Precip Events Conditions
12:53 AM 39.9 °F 33.4 °F 23.0 °F 51% 30.29 in 10.0 mi NW 10.4 mph - N/A   Clear
1:53 AM 39.0 °F 32.3 °F 24.1 °F 55% 30.30 in 10.0 mi NW 10.4 mph - N/A   Clear
2:53 AM 37.0 °F 29.3 °F 21.9 °F 54% 30.30 in 10.0 mi NNW 11.5 mph - N/A   Clear
3:53 AM 36.0 °F 27.5 °F 21.0 °F 55% 30.32 in 10.0 mi NNW 12.7 mph - N/A   Clear
4:53 AM 34.0 °F 26.6 °F 21.0 °F 59% 30.34 in 10.0 mi NNW 9.2 mph - N/A   Clear
5:53 AM 32.0 °F 23.6 °F 21.0 °F 64% 30.37 in 10.0 mi NNW 10.4 mph - N/A   Clear
6:53 AM 32.0 °F 23.6 °F 21.0 °F 64% 30.38 in 10.0 mi North 10.4 mph - N/A   Clear
7:53 AM 36.0 °F 26.7 °F 21.0 °F 55% 30.41 in 10.0 mi NNW 15.0 mph - N/A   Clear
8:53 AM 37.9 °F 29.6 °F 21.0 °F 51% 30.42 in 10.0 mi NNW 13.8 mph 19.6 mph N/A   Clear
9:53 AM 41.0 °F 35.2 °F 21.9 °F 47% 30.42 in 10.0 mi NNW 9.2 mph - N/A   Clear
10:53 AM 44.1 °F 40.1 °F 21.9 °F 42% 30.41 in 10.0 mi North 6.9 mph - N/A   Clear
11:53 AM 46.0 °F 42.5 °F 21.9 °F 39% 30.40 in 10.0 mi North 6.9 mph - N/A   Clear
12:53 PM 46.0 °F 43.9 °F 21.0 °F 37% 30.38 in 10.0 mi SE 4.6 mph - N/A   Partly Cloudy
1:53 PM 48.9 °F - 21.9 °F 35% 30.35 in 10.0 mi Variable 3.5 mph - N/A   Partly Cloudy
2:53 PM 50.0 °F - 21.9 °F 33% 30.33 in 10.0 mi Calm Calm - N/A   Partly Cloudy
3:53 PM 51.1 °F - 21.9 °F 32% 30.32 in 10.0 mi West 3.5 mph - N/A   Partly Cloudy
4:53 PM 50.0 °F - 21.9 °F 33% 30.32 in 10.0 mi WNW 3.5 mph - N/A   Mostly Cloudy
5:53 PM 48.0 °F - 24.1 °F 39% 30.32 in 10.0 mi North 4.6 mph - N/A   Mostly Cloudy
6:53 PM 45.0 °F 41.8 °F 27.0 °F 49% 30.33 in 10.0 mi ESE 5.8 mph - N/A   Mostly Cloudy
7:53 PM 41.0 °F 37.1 °F 28.9 °F 62% 30.33 in 10.0 mi SSE 5.8 mph - N/A   Scattered Clouds
8:53 PM 41.0 °F - 28.9 °F 62% 30.32 in 10.0 mi Calm Calm - N/A   Scattered Clouds
9:53 PM 41.0 °F - 28.9 °F 62% 30.32 in 10.0 mi Calm Calm - N/A   Overcast
10:53 PM 39.9 °F 35.1 °F 30.9 °F 70% 30.31 in 10.0 mi East 6.9 mph - N/A   Overcast
11:53 PM 39.9 °F 37.8 °F 30.9 °F 70% 30.32 in 10.0 mi ESE 3.5 mph - N/A   Overcast